Location: Sluknov
(51.0170°N, 14.4670°E)
Time: 11:10:56
(UTC+01:00)

ISS - Pass Details

Date: 24 February 2026
Orbit: 416 x 426 km, 51.6° (Epoch: 10 March)

Event Time Altitude Azimuth Distance (km) Brightness Sun altitude
Exits shadow 05:04:07 64° 296° (WNW) 468 -3.8 -18.5°
Maximum altitude 05:04:32 78° 1° (N) 431 -3.8 -18.5°
Drops below altitude 10° 05:07:53 10° 88° (E) 1,493 0.3 -17.9°
Sets 05:09:59 0° 89° (E) 2,356 1.8 -17.6°
